This is the latest recevied weather packets stored in our database for station/object W1LBM. If no packets are shown the sender has not sent any weather packets the latest 10 day(s).
| Time | Temp. | Humidity | Pressure | Rain* | Wind** | Luminosity | Snow |
|---|---|---|---|---|---|---|---|
| 1778063253 | 14.44° C | 88% | 1014.4 hPa | 0 mm | - | 32 W/m² | - |
| 1778062951 | 14.44° C | 88% | 1014.1 hPa | 0 mm | - | 33 W/m² | - |
| 1778062647 | 14.44° C | 88% | 1014.3 hPa | 0 mm | - | 33 W/m² | - |
| 1778062344 | 14.44° C | 88% | 1014.3 hPa | 0 mm | - | 24 W/m² | - |
| 1778062042 | 14.44° C | 88% | 1014.2 hPa | 0 mm | - | 17 W/m² | - |
| 1778061740 | 14.44° C | 87% | 1014.1 hPa | 0 mm | - | 13 W/m² | - |
| 1778061438 | 14.44° C | 87% | 1014.2 hPa | 0 mm | - | 11 W/m² | - |
| 1778061135 | 14.44° C | 87% | 1014.1 hPa | 0 mm | - | 9 W/m² | - |
| 1778060832 | 14.44° C | 87% | 1014 hPa | 0 mm | - | 6 W/m² | - |
| 1778060530 | 14.44° C | 87% | 1013.9 hPa | 0 mm | - | 4 W/m² | - |
| 1778060229 | 14.44° C | 87% | 1014.1 hPa | 0 mm | - | 2 W/m² | - |
| 1778059925 | 15° C | 86% | 1014.1 hPa | 0 mm | - | 1 W/m² | - |
| 1778059623 | 15° C | 86% | 1014.2 hPa | 0 mm | - | 1 W/m² | - |
| 1778059320 | 15° C | 86% | 1013.9 hPa | 0 mm | - | 0 W/m² | - |
| 1778059018 | 15° C | 86% | 1014.2 hPa | 0 mm | - | 0 W/m² | - |
| 1778058715 | 15° C | 85% | 1014.2 hPa | 0 mm | - | 0 W/m² | - |
| 1778058413 | 15° C | 85% | 1014.1 hPa | 0 mm | - | 0 W/m² | - |
| 1778058109 | 15° C | 85% | 1014.2 hPa | 0 mm | - | 0 W/m² | - |
| 1778057806 | 15° C | 85% | 1014 hPa | 0 mm | - | 0 W/m² | - |
| 1778057502 | 15° C | 85% | 1014.2 hPa | 0 mm | - | 0 W/m² | - |
| 1778057199 | 15° C | 84% | 1014.4 hPa | 0 mm | - | 0 W/m² | - |
| 1778056896 | 15.56° C | 84% | 1014.3 hPa | 0 mm | - | 0 W/m² | - |
| 1778056593 | 15.56° C | 84% | 1014.4 hPa | 0 mm | - | 0 W/m² | - |
| 1778056290 | 15.56° C | 83% | 1014.4 hPa | 0 mm | - | 0 W/m² | - |
| 1778055987 | 15.56° C | 83% | 1014.2 hPa | 0 mm | - | 0 W/m² | - |
* Rain latest hour (hover to see other rain measurements)
** Current wind speed in m/s (hover to see current wind gust speed)